| time (UTC) | temp C | wind direction | speed KPH | gust KPH | rain 1hr cm | rain 24hr cm | rain mn cm | humidity % | barometer mb |
| 20260906094547 | 28 | 79 | 4.8 | 12.9 | 0.00 | 0.00 | 0.00 | 70 | 1021.4 |
| 20260906093102 | 28 | 91 | 1.6 | 9.7 | 0.00 | 0.00 | 0.00 | 70 | 1021.5 |
| 20260906091606 | 28 | 95 | 3.2 | 8.0 | 0.00 | 0.00 | 0.00 | 73 | 1021.5 |
| 20260906090018 | 27 | 63 | 0.0 | 8.0 | 0.00 | 0.00 | 0.00 | 76 | 1021.4 |
| 20260906084530 | 27 | 67 | 1.6 | 9.7 | 0.00 | 0.00 | 0.00 | 77 | 1021.4 |
| 20260906083049 | 27 | 298 | 0.0 | 8.0 | 0.00 | 0.00 | 0.00 | 77 | 1021.4 |
| 20260906081511 | 26 | 269 | 0.0 | 4.8 | 0.00 | 0.00 | 0.00 | 77 | 1021.4 |
| 20260906080121 | 26 | 24 | 3.2 | 8.0 | 0.00 | 0.00 | 0.00 | 76 | 1021.3 |
| 20260906074544 | 26 | 20 | 3.2 | 8.0 | 0.00 | 0.00 | 0.00 | 76 | 1021.2 |
| 20260906073004 | 26 | 335 | 1.6 | 6.4 | 0.00 | 0.00 | 0.00 | 75 | 1021.1 |
| 20260906071527 | 25 | 41 | 0.0 | 4.8 | 0.00 | 0.00 | 0.00 | 77 | 1021.0 |
| 20260906070056 | 25 | 8 | 1.6 | 6.4 | 0.00 | 0.00 | 0.00 | 75 | 1021.0 |
| 20260906064510 | 25 | 259 | 0.0 | 1.6 | 0.00 | 0.00 | 0.00 | 72 | 1020.9 |
| 20260906063036 | 25 | 256 | 0.0 | 3.2 | 0.00 | 0.00 | 0.00 | 73 | 1020.7 |
| 20260906061556 | 24 | 163 | 0.0 | 0.0 | 0.00 | 0.00 | 0.00 | 73 | 1020.7 |
| 20260906060010 | 23 | 269 | 0.0 | 4.8 | 0.00 | 0.00 | 0.00 | 73 | 1020.5 |
| 20260906054531 | 23 | 281 | 0.0 | 3.2 | 0.00 | 0.00 | 0.00 | 73 | 1020.4 |
| 20260906053045 | 23 | 295 | 0.0 | 3.2 | 0.00 | 0.00 | 0.00 | 73 | 1020.3 |
| 20260906051501 | 23 | 256 | 0.0 | 1.6 | 0.00 | 0.00 | 0.00 | 75 | 1020.1 |
| 20260906050018 | 23 | 267 | 0.0 | 1.6 | 0.00 | 0.00 | 0.00 | 75 | 1020.1 |
| 20260906044538 | 23 | 267 | 0.0 | 0.0 | 0.00 | 0.00 | 0.00 | 75 | 1019.9 |
| 20260906043100 | 23 | 267 | 0.0 | 0.0 | 0.00 | 0.00 | 0.00 | 76 | 1019.8 |
| 20260906041543 | 22 | 266 | 0.0 | 0.0 | 0.00 | 0.00 | 0.00 | 76 | 1019.7 |
| 20260906040103 | 22 | 267 | 0.0 | 0.0 | 0.00 | 0.00 | 0.00 | 77 | 1019.6 |
| 20260906034509 | 22 | 266 | 0.0 | 1.6 | 0.00 | 0.00 | 0.00 | 77 | 1019.5 |
| 20260906033038 | 22 | 215 | 0.0 | 0.0 | 0.00 | 0.00 | 0.00 | 75 | 1019.3 |
| 20260906031514 | 22 | 221 | 0.0 | 1.6 | 0.00 | 0.00 | 0.00 | 74 | 1019.3 |
| 20260906030010 | 23 | 224 | 1.6 | 4.8 | 0.00 | 0.00 | 0.00 | 72 | 1019.2 |
| 20260906024542 | 23 | 325 | 0.0 | 3.2 | 0.00 | 0.00 | 0.00 | 71 | 1019.3 |
| 20260906023023 | 23 | 1 | 0.0 | 1.6 | 0.00 | 0.00 | 0.00 | 69 | 1019.0 |
| 20260906021528 | 23 | 299 | 1.6 | 6.4 | 0.00 | 0.00 | 0.00 | 71 | 1018.7 |
| 20260906020101 | 23 | 271 | 0.0 | 3.2 | 0.00 | 0.00 | 0.00 | 72 | 1018.6 |
| 20260906014527 | 23 | 64 | 0.0 | 1.6 | 0.00 | 0.00 | 0.00 | 69 | 1018.4 |
| 20260906013046 | 24 | 64 | 0.0 | 3.2 | 0.00 | 0.00 | 0.00 | 68 | 1018.5 |
| 20260906011554 | 23 | 275 | 0.0 | 0.0 | 0.00 | 0.00 | 0.00 | 70 | 1018.4 |
| 20260906010008 | 23 | 276 | 0.0 | 1.6 | 0.00 | 0.00 | 0.00 | 69 | 1018.3 |
| 20260906004524 | 23 | 270 | 0.0 | 0.0 | 0.00 | 0.00 | 0.00 | 69 | 1018.3 |
| 20260906003044 | 23 | 270 | 0.0 | 0.0 | 0.00 | 0.00 | 0.00 | 68 | 1018.3 |
| 20260906001601 | 23 | 269 | 0.0 | 1.6 | 0.00 | 0.00 | 0.00 | 67 | 1018.3 |
| 20260906000015 | 24 | 271 | 0.0 | 1.6 | 0.00 | 0.00 | 0.00 | 66 | 1018.3 |
| 20260905234536 | 24 | 256 | 0.0 | 1.6 | 0.00 | 0.00 | 0.00 | 65 | 1018.3 |
| 20260905233051 | 24 | 256 | 0.0 | 1.6 | 0.00 | 0.00 | 0.00 | 64 | 1018.1 |
| 20260905231507 | 25 | 215 | 0.0 | 1.6 | 0.00 | 0.00 | 0.00 | 61 | 1017.9 |
| 20260905230024 | 25 | 194 | 0.0 | 0.0 | 0.00 | 0.00 | 0.00 | 61 | 1017.9 |
| 20260905224543 | 25 | 150 | 0.0 | 1.6 | 0.00 | 0.00 | 0.00 | 59 | 1017.8 |
| 20260905223100 | 26 | 129 | 0.0 | 4.8 | 0.00 | 0.00 | 0.00 | 57 | 1017.8 |
| 20260905221620 | 26 | 52 | 0.0 | 3.2 | 0.00 | 0.00 | 0.00 | 56 | 1017.7 |
| 20260905220057 | 26 | 116 | 0.0 | 8.0 | 0.00 | 0.00 | 0.00 | 56 | 1017.5 |
| 20260905214526 | 27 | 158 | 1.6 | 4.8 | 0.00 | 0.00 | 0.00 | 53 | 1017.4 |
| 20260905213057 | 27 | 101 | 0.0 | 3.2 | 0.00 | 0.00 | 0.00 | 52 | 1017.2 |
| 20260905211504 | 27 | 119 | 1.6 | 4.8 | 0.00 | 0.00 | 0.00 | 52 | 1017.1 |
| 20260905210028 | 27 | 142 | 0.0 | 4.8 | 0.00 | 0.00 | 0.00 | 51 | 1017.0 |
| 20260905204546 | 28 | 123 | 0.0 | 3.2 | 0.00 | 0.00 | 0.00 | 49 | 1016.9 |
| 20260905203010 | 28 | 128 | 1.6 | 4.8 | 0.00 | 0.00 | 0.00 | 49 | 1016.8 |
| 20260905201558 | 28 | 125 | 1.6 | 3.2 | 0.00 | 0.00 | 0.00 | 49 | 1016.8 |
| 20260905200004 | 28 | 148 | 0.0 | 1.6 | 0.00 | 0.00 | 0.00 | 50 | 1016.8 |
| 20260905194519 | 28 | 166 | 0.0 | 1.6 | 0.00 | 0.00 | 0.00 | 49 | 1016.7 |
| 20260905193113 | 29 | 207 | 1.6 | 3.2 | 0.00 | 0.00 | 0.00 | 48 | 1016.5 |
| 20260905191514 | 29 | 97 | 0.0 | 3.2 | 0.00 | 0.00 | 0.00 | 48 | 1016.4 |
| 20260905190035 | 30 | 80 | 0.0 | 1.6 | 0.00 | 0.00 | 0.00 | 49 | 1016.2 |
| 20260905184554 | 30 | 135 | 0.0 | 3.2 | 0.00 | 0.00 | 0.00 | 48 | 1016.1 |
| 20260905183007 | 30 | 212 | 0.0 | 4.8 | 0.00 | 0.00 | 0.00 | 49 | 1015.8 |
| 20260905181523 | 31 | 135 | 0.0 | 1.6 | 0.00 | 0.00 | 0.00 | 49 | 1015.7 |
| 20260905180044 | 31 | 266 | 0.0 | 6.4 | 0.00 | 0.00 | 0.00 | 48 | 1015.5 |
| 20260905174605 | 32 | 139 | 0.0 | 4.8 | 0.00 | 0.00 | 0.00 | 46 | 1015.4 |
| 20260905173012 | 33 | 221 | 0.0 | 1.6 | 0.00 | 0.00 | 0.00 | 43 | 1015.3 |
| 20260905171530 | 33 | 273 | 1.6 | 4.8 | 0.00 | 0.00 | 0.00 | 36 | 1015.3 |
| 20260905170049 | 33 | 319 | 0.0 | 9.7 | 0.00 | 0.00 | 0.00 | 35 | 1015.1 |
| 20260905164520 | 34 | 36 | 4.8 | 11.3 | 0.00 | 0.00 | 0.00 | 34 | 1015.0 |
| 20260905163039 | 35 | 278 | 0.0 | 6.4 | 0.00 | 0.00 | 0.00 | 34 | 1014.8 |
| 20260905161605 | 35 | 33 | 1.6 | 9.7 | 0.00 | 0.00 | 0.00 | 34 | 1014.8 |
| 20260905160031 | 35 | 276 | 0.0 | 6.4 | 0.00 | 0.00 | 0.00 | 33 | 1014.7 |
| 20260905154604 | 35 | 321 | 0.0 | 9.7 | 0.00 | 0.00 | 0.00 | 33 | 1014.6 |
| 20260905153013 | 35 | 79 | 0.0 | 9.7 | 0.00 | 0.00 | 0.00 | 33 | 1014.6 |
| 20260905151533 | 35 | 22 | 0.0 | 8.0 | 0.00 | 0.00 | 0.00 | 32 | 1014.6 |
| 20260905150056 | 35 | 58 | 0.0 | 6.4 | 0.00 | 0.00 | 0.00 | 32 | 1014.7 |
| 20260905144509 | 35 | 117 | 1.6 | 9.7 | 0.00 | 0.00 | 0.00 | 32 | 1014.8 |
| 20260905143029 | 35 | 70 | 0.0 | 11.3 | 0.00 | 0.00 | 0.00 | 32 | 1014.8 |
| 20260905141545 | 35 | 252 | 0.0 | 4.8 | 0.00 | 0.00 | 0.00 | 31 | 1014.9 |
| 20260905140106 | 35 | 289 | 0.0 | 8.0 | 0.00 | 0.00 | 0.00 | 32 | 1015.0 |
| 20260905134516 | 35 | 134 | 0.0 | 3.2 | 0.00 | 0.00 | 0.00 | 32 | 1015.2 |
| 20260905133034 | 35 | 262 | 0.0 | 8.0 | 0.00 | 0.00 | 0.00 | 32 | 1015.4 |
| 20260905131558 | 34 | 302 | 4.8 | 11.3 | 0.00 | 0.00 | 0.00 | 33 | 1015.5 |
| 20260905130005 | 34 | 273 | 1.6 | 8.0 | 0.00 | 0.00 | 0.00 | 33 | 1015.7 |
| 20260905124526 | 33 | 355 | 4.8 | 11.3 | 0.00 | 0.00 | 0.00 | 32 | 1015.7 |
| 20260905123043 | 33 | 55 | 4.8 | 12.9 | 0.00 | 0.00 | 0.00 | 33 | 1015.9 |
| 20260905121603 | 33 | 284 | 1.6 | 11.3 | 0.00 | 0.00 | 0.00 | 32 | 1016.1 |
| 20260905120029 | 33 | 339 | 4.8 | 12.9 | 0.00 | 0.00 | 0.00 | 33 | 1016.2 |
| 20260905114544 | 33 | 18 | 3.2 | 12.9 | 0.00 | 0.00 | 0.00 | 33 | 1016.2 |
| 20260905113030 | 33 | 104 | 6.4 | 14.5 | 0.00 | 0.00 | 0.00 | 33 | 1016.2 |
| 20260905111547 | 33 | 11 | 6.4 | 16.1 | 0.00 | 0.00 | 0.00 | 32 | 1016.3 |
| 20260905110017 | 32 | 315 | 8.0 | 12.9 | 0.00 | 0.00 | 0.00 | 34 | 1016.4 |
| 20260905104508 | 32 | 276 | 4.8 | 16.1 | 0.00 | 0.00 | 0.00 | 34 | 1016.6 |
| 20260905103026 | 31 | 302 | 4.8 | 14.5 | 0.00 | 0.00 | 0.00 | 35 | 1016.5 |
| 20260905101536 | 31 | 276 | 3.2 | 9.7 | 0.00 | 0.00 | 0.00 | 36 | 1016.6 |
| 20260905100058 | 31 | 33 | 3.2 | 11.3 | 0.00 | 0.00 | 0.00 | 38 | 1016.7 |